Location: Squirrel Cove
(50.1074°N, 124.9139°W)
Time: 08:20:53
(UTC-07:00)

ARIANE 6 FM1 Upper Stage - Visible Passes

Search period start: 08 September 2024 00:00
Search period end: 18 September 2024 00:00
Orbit: 567 x 594 km, 62.0° (Epoch: 06 September)

Date Brightness Start Highest point End Pass type
(mag) Time Alt. Az. Time Alt. Az. Time Alt. Az.
08 Sep 4.8 02:35:58 27° NNE 02:35:58 27° NNE 02:38:19 10° NE visible
08 Sep 5.1 04:12:17 13° NW 04:14:37 18° N 04:17:42 10° NE visible
08 Sep 5.1 05:52:10 10° NW 05:55:24 20° NNE 05:58:38 10° ENE visible
09 Sep 4.8 02:40:37 25° N 02:40:37 25° N 02:43:09 10° NE visible
09 Sep 5.2 04:16:56 10° NW 04:19:48 17° N 04:22:46 10° NE visible
09 Sep 5.0 05:57:05 10° NNW 06:00:33 22° NNE 06:04:01 10° ENE visible
10 Sep 4.9 02:45:14 23° N 02:45:14 23° N 02:47:58 10° NE visible
10 Sep 5.3 04:22:05 10° NW 04:24:59 17° N 04:27:55 10° NE visible
10 Sep 4.8 06:01:56 10° NW 06:05:39 26° NNE 06:09:22 10° E visible
11 Sep 5.8 01:13:33 10° NE 01:13:33 10° NE 01:13:36 10° NE visible
11 Sep 5.0 02:49:52 21° N 02:49:52 21° N 02:52:49 10° NNE visible
11 Sep 5.3 04:27:11 10° NW 04:30:09 18° N 04:33:08 10° NE visible
11 Sep 4.5 06:06:43 10° NW 06:10:42 32° NNE 06:14:39 10° E visible
12 Sep 5.8 01:18:11 11° NE 01:18:11 11° NE 01:18:23 10° NE visible
12 Sep 5.1 02:54:30 19° NNW 02:54:31 19° NNW 02:57:41 10° NE visible
12 Sep 5.3 04:32:10 10° NW 04:35:18 19° NNE 04:38:26 10° ENE visible
12 Sep 4.1 06:11:30 10° NW 06:15:40 42° NE 06:19:50 10° ESE visible
13 Sep 5.8 01:22:49 12° NE 01:22:49 12° NE 01:23:08 10° NE visible
13 Sep 5.2 02:59:08 17° NNW 02:59:38 18° N 03:02:38 10° NE visible
13 Sep 5.2 04:37:03 10° NNW 04:40:24 21° NNE 04:43:45 10° ENE visible
13 Sep 3.5 06:16:15 10° NW 06:20:35 57° NE 06:24:53 10° ESE visible
14 Sep 5.8 01:27:29 12° NNE 01:27:29 12° NNE 01:27:53 10° NE visible
14 Sep 5.3 03:03:49 16° NNW 03:04:45 17° N 03:07:41 10° NE visible
14 Sep 5.0 04:41:50 10° NW 04:45:27 24° NNE 04:49:04 10° ENE visible
14 Sep 3.0 06:21:01 10° NW 06:25:25 80° NE 06:29:48 10° SE visible
15 Sep 5.8 01:32:13 12° NNE 01:32:13 12° NNE 01:32:40 10° NNE visible
15 Sep 5.3 03:08:32 15° NNW 03:09:51 17° N 03:12:48 10° NE visible
15 Sep 4.7 04:46:36 10° NW 04:50:27 29° NNE 04:54:18 10° E visible
16 Sep 5.9 01:37:01 12° NNE 01:37:01 12° NNE 01:37:27 10° NNE visible
16 Sep 5.3 03:13:22 15° NNW 03:14:57 18° N 03:18:00 10° NE visible
16 Sep 4.2 04:51:19 10° NW 04:55:24 37° NNE 04:59:28 10° E visible
17 Sep 5.9 01:41:59 11° NNE 01:41:59 11° NNE 01:42:18 10° NE visible
17 Sep 5.2 03:18:20 16° NNW 03:20:00 20° NNE 03:23:15 10° ENE visible
17 Sep 3.7 04:56:01 10° NW 05:00:16 49° NE 05:04:31 10° ESE visible
